Location: Calvatone
(45.1167°N, 10.4333°E)
Time: 23:14:22
(UTC+00:00)

Tiangong - Visible Passes

Search period start: 29 May 2023 00:00
Search period end: 08 June 2023 00:00
Orbit: 386 x 392 km, 41.5° (Epoch: 29 May)

Date Brightness Start Highest point End Pass type
(mag) Time Alt. Az. Time Alt. Az. Time Alt. Az.
01 Jun 0.5 02:31:06 10° SSE 02:31:39 10° SSE 02:32:13 10° SE visible
03 Jun -0.1 02:10:32 14° S 02:11:40 17° SSE 02:13:48 10° ESE visible
04 Jun -1.0 02:46:57 10° SW 02:49:50 31° SSE 02:52:44 10° ESE visible
05 Jun -0.8 01:50:59 23° S 01:51:33 24° SSE 01:54:12 10° ESE visible
06 Jun 0.5 00:54:59 12° ESE 00:54:59 12° ESE 00:55:27 10° ESE visible
06 Jun -1.5 02:27:15 14° WSW 02:29:42 39° S 02:32:43 10° ESE visible
07 Jun -1.3 01:31:13 32° S 01:31:16 32° SSE 01:34:11 10° ESE visible
